RAPTOR4

导读

RAPTOR-4是一颗由美国发射的卫星,于**2024年2月14日北京时间8时**成功进入预定轨道,截至当前已在轨运行超过两年。作为美国航天部署中的小型技术验证卫星,其主要承担新型空间态势感知传感器的在轨测试任务,旨在提升对空间碎片的监测与跟踪能力,为后续星座组网积累工程经验。该卫星由私营航天企业牵头研制,采用轻量化设计,通过共享发射任务进入近地轨道,体现了美国商业航天灵活搭载的发射模式。目前卫星运行状态良好,已完成多轮技术验证,数据传输稳定。(字数:120)

基本信息
目录编号:
58956
目录名称:
RAPTOR4
国际标识:
2024-028B
轨道中心:
EARTH
卫星名称:
RAPTOR4
卫星全名:
--
卫星状态:
在轨 (已飞行949 天)
发射日期:
2024-02-14 UTC
国别 :
美国 (US)
星等 :
--
该卫星已列入 空间交会检测服务 Space Conjunction Data Service (SCDS) ,当前飞行风险评估等级: 无高风险
轨道信息
数据来源 国际轨道数据 AOE轨道数据
星历时间 2026-09-18T14:33:32+0800
2天前
查看轨道信息
2026-09-16T17:00:00+0800
4天前
查看轨道信息
半长轴 7362.001km 7362.813km
偏心率 0.0013904 0.0013707
轨道倾角 39.990° 39.992°
近地点辐角 58.057° 45.598°
升交点赤经 335.177° 343.957°
平近点角 302.153° 271.812°
近地点 973.627km 974.583km
远地点 994.101km 994.769km
周期 104.774分钟 104.791分钟
每日圈数 13.743868 13.741594
详细信息
使用方式:
暂无
2D轨道图
3D轨道图
轨道高度分析图
轨道倾角分析图
轨道综合分析图
查看轨道综合分析图
交会数据列表
事件ID 空间交会对象 最接近时刻(TCA) 交会距离 交会风险概率(CRP) 交会风险指数(CRI) 操作
CDM_260921-190201-132705-895623
SL-8 R/B (11327)
RAPTOR4 (58956)
2026-09-21T
19:02:32+0000
2.972 km
极远距离
7.883213E-7 极低风险 0.33
与全量物体交会距离演化趋势 订阅飞行安全评估服务
与全量物体交会风险概率演化趋势 订阅飞行安全评估服务